Regional Weather Roundup
Issued by NWS

Home | Current Version | Previous Version | Text Only | Print | Product List | Glossary Off
Versions: 1 2 3 4 5 6 7 8 9 10 11 12 13 14 15 16 17 18 19 20 21 22 23 24 25 26 27 28

000
ASUS45 KSLC 230510
RWRUT

UTAH REGIONAL WEATHER ROUNDUP
NATIONAL WEATHER SERVICE SALT LAKE CITY UT
1000 PM MST WED NOV 22 2017

UTZ001>011-023>025-230600-

NORTHERN UTAH

CITY           SKY/WX    TMP DP  RH WIND       PRES   REMARKS
BRIGHAM CITY   PTCLDY    44  40  87 CALM      30.36F
HILL AFB       PTCLDY    51  40  66 E10       30.36F
LOGAN          PTCLDY    44  39  82 E5        30.37F
OGDEN          PTCLDY    47  40  76 S8        30.35F
SALT LAKE CITY MOCLDY    49  42  77 SE7       30.36F
TOOELE VALLEY  PTCLDY    41  39  93 S5        30.36F
WENDOVER       CLEAR     42  35  76 CALM      30.37S
HEBER CITY       N/A     36  32  87 CALM      30.43S
WEST JORDAN    PTCLDY    46  42  85 CALM      30.38F

$$

UTZ011>015-024>027-230600-

CENTRAL/NORTHEAST UTAH

CITY           SKY/WX    TMP DP  RH WIND       PRES   REMARKS
PROVO AIRPORT  PTCLDY    41  36  82 SE7       30.41S
MOAB/CANYONLAN MOCLDY    42  23  46 CALM      30.38S
DELTA          MOCLDY    43  34  70 E7        30.40S
PRICE          CLOUDY    42  32  67 N6        30.42S
RICHFIELD      CLEAR     37  37 100 CALM      30.45R
ROOSEVELT      CLOUDY    37  30  75 CALM      30.43R
VERNAL         CLOUDY    41  32  70 CALM      30.40S

$$

UTZ013>016-019>022-027-230600-

SOUTHERN UTAH

CITY           SKY/WX    TMP DP  RH WIND       PRES   REMARKS
BRYCE CANYON   PTCLDY    32  27  81 W10       30.51S WCI  24
CEDAR CITY     PTCLDY    44  33  65 SW5       30.41R
MILFORD        PTCLDY    45  34  65 CALM      30.40R
ST GEORGE      PTCLDY    56  30  37 CALM      30.29R
HANKSVILLE     MOCLDY    37  19  48 NE3       30.41S
KANAB          CLEAR     50  30  46 N8        30.42R
BLANDING         N/A     44  31  60 N9        30.47F

$$

REGIONAL REPORTS     COLORADO/ARIZONA

CITY           SKY/WX    TMP DP  RH WIND       PRES   REMARKS
CRAIG, CO      CLOUDY    33  29  85 CALM      30.43F
GRAND JUNCTION CLOUDY    43  31  62 SE8       30.40S
RIFLE, CO      CLOUDY    39  34  82 CALM      30.45S
MONTROSE, CO   CLOUDY    37  31  78 S6        30.46S WCI  32
CORTEZ, CO     CLOUDY    37  28  70 NE8       30.39R WCI  31
COLORADO CITY    N/A     50  32  50 S3        30.38F
PAGE, AZ       CLEAR     49  29  46 CALM      30.37S
GRAND CANYON   CLEAR     33  23  66 CALM      30.45S
KINGMAN, AZ    CLEAR     54  31  41 E7        30.27R
FLAGSTAFF, AZ  CLEAR     37  24  59 CALM      30.44S

$$

REGIONAL REPORTS    NEVADA/IDAHO/WYOMING

CITY           SKY/WX    TMP DP  RH WIND       PRES   REMARKS
LAS VEGAS, NV  PTCLDY    64  38  38 S5        30.20S
ELY, NY        CLEAR     38  27  64 S12       30.44S WCI  30
ELKO, NV       CLOUDY    48  42  80 NW5       30.35F
POCATELLO, ID  CLOUDY    44  41  89 NE10      30.34R
BURLEY, ID     PTCLDY    45  41  86 E3        30.29S
FORT BRIDGER,    N/A     47  38  70 W13G18    30.47S
EVANSTON, WY   CLOUDY    42  37  82 SW9       30.46S
ROCK SPRINGS,  CLOUDY    45  37  73 SW17      30.40S
KEMMERER, WY   CLOUDY    39  36  87 W5        30.46S

$$




USA.gov is the U.S. government's official web portal to all federal, state and local government web resources and services.